GW0890 Weather Reports


Display with metric or nautical units.
time (UTC)temp
F
wind
direction
speed
MPH
gust
MPH
rain 1hr
in
rain 24hr
in
rain mn
in
humidity
%
barometer
mb
20260904030054 77 207 0.0 0.0 0.00 0.00 0.00 94 1013.7
20260904024552 77 207 0.0 0.0 0.00 0.00 0.00 94 1013.7
20260904023021 77 207 0.0 1.0 0.00 0.00 0.00 93 1013.8
20260904021521 78 207 0.0 1.0 0.00 0.00 0.00 92 1013.8
20260904020028 78 207 0.0 1.0 0.00 0.00 0.00 92 1014.0
20260904014519 78 207 0.0 1.0 0.00 0.00 0.00 92 1013.6
20260904013018 79 207 1.0 4.0 0.00 0.00 0.00 90 1013.6
20260904011518 80 209 0.0 0.0 0.00 0.00 0.00 89 1013.4
20260904010015 80 209 0.0 0.0 0.00 0.00 0.00 88 1013.2
20260904004514 81 209 0.0 0.0 0.00 0.00 0.00 87 1013.1
20260904003013 81 209 0.0 0.0 0.00 0.00 0.00 86 1013.1
20260904001512 82 209 0.0 2.0 0.00 0.00 0.00 87 1012.8
20260904000010 83 209 0.0 2.0 0.00 0.00 0.00 86 1012.8
20260903234512 83 215 4.0 5.0 0.00 0.00 0.00 84 1012.8
20260903233009 86 209 4.0 6.0 0.00 0.00 0.00 79 1012.6
20260903231508 90 51 0.0 0.0 0.00 0.00 0.00 71 1012.3
20260903230004 94 33 0.0 4.0 0.00 0.00 0.00 65 1012.3
20260903224503 94 33 3.0 7.0 0.00 0.00 0.00 60 1012.1
20260903223002 95 34 3.0 6.0 0.00 0.00 0.00 59 1012.0
20260903221503 95 19 2.0 5.0 0.00 0.00 0.00 61 1011.7
20260903220107 95 28 3.0 6.0 0.00 0.00 0.00 60 1011.7
20260903214559 95 348 2.0 8.0 0.00 0.00 0.00 59 1011.6
20260903213058 96 319 5.0 9.0 0.00 0.00 0.00 58 1011.8
20260903211603 96 43 1.0 7.0 0.00 0.00 0.00 59 1012.1
20260903210023 96 349 2.0 7.0 0.00 0.00 0.00 55 1012.3
20260903204521 96 318 1.0 8.0 0.00 0.00 0.00 55 1012.7
20260903203023 96 81 6.0 9.0 0.00 0.00 0.00 53 1012.9
20260903201518 96 323 4.0 10.0 0.00 0.00 0.00 55 1013.0
20260903200034 96 65 5.0 8.0 0.00 0.00 0.00 55 1013.1
20260903194532 96 74 3.0 10.0 0.00 0.00 0.00 58 1013.2
20260903193007 96 88 2.0 6.0 0.00 0.00 0.00 58 1013.5
20260903191506 95 57 0.0 5.0 0.00 0.00 0.00 59 1013.6
20260903190003 94 225 0.0 2.0 0.00 0.00 0.00 58 1013.8
20260903184502 93 229 0.0 4.0 0.00 0.00 0.00 61 1013.9
20260903183117 91 225 2.0 6.0 0.00 0.00 0.00 73 1014.1
20260903181610 93 175 2.0 5.0 0.00 0.00 0.00 63 1014.2
20260903180053 94 200 4.0 9.0 0.00 0.00 0.00 58 1014.4
20260903174551 96 71 0.0 2.0 0.00 0.00 0.00 55 1014.5
20260903173058 97 22 2.0 6.0 0.00 0.00 0.00 54 1014.7
20260903171551 96 103 1.0 9.0 0.00 0.00 0.00 56 1014.7
20260903170042 94 79 0.0 6.0 0.00 0.00 0.00 59 1014.9
20260903164539 93 119 0.0 6.0 0.00 0.00 0.00 61 1015.0
20260903163036 92 5 2.0 8.0 0.00 0.00 0.00 61 1015.2
20260903161541 92 46 5.0 8.0 0.00 0.00 0.00 65 1015.3
20260903160131 92 65 4.0 7.0 0.00 0.00 0.00 64 1015.3
20260903154558 91 62 3.0 7.0 0.00 0.00 0.00 67 1015.3
20260903153053 90 58 2.0 5.0 0.00 0.00 0.00 69 1015.4
20260903151519 89 117 0.0 6.0 0.00 0.00 0.00 72 1015.5
20260903150017 87 323 2.0 5.0 0.00 0.00 0.00 78 1015.5
20260903144542 85 321 1.0 5.0 0.00 0.00 0.00 80 1015.5
20260903143042 83 315 0.0 3.0 0.00 0.00 0.00 84 1015.6
20260903141504 82 313 3.0 5.0 0.00 0.00 0.00 86 1015.5
20260903140101 81 304 0.0 3.0 0.00 0.00 0.00 88 1015.7
20260903134606 79 299 2.0 5.0 0.00 0.00 0.00 92 1015.6
20260903133052 78 267 1.0 5.0 0.00 0.00 0.00 96 1015.7
20260903131545 76 224 0.0 0.0 0.00 0.00 0.00 99 1015.9
20260903130044 74 224 0.0 0.0 0.00 0.00 0.00 99 1016.1
20260903124554 73 224 0.0 0.0 0.00 0.00 0.00 99 1016.1
20260903123041 72 224 0.0 0.0 0.00 0.00 0.00 99 1016.2
20260903121546 72 224 0.0 0.0 0.00 0.00 0.00 99 1016.2
20260903120037 71 224 0.0 0.0 0.00 0.00 0.00 99 1016.2
20260903114535 71 224 0.0 0.0 0.00 0.00 0.00 99 1016.0
20260903113032 70 224 0.0 0.0 0.00 0.00 0.00 99 1015.8
20260903111530 70 224 0.0 0.0 0.00 0.00 0.00 99 1015.8
20260903110028 70 224 0.0 0.0 0.00 0.00 0.00 99 1015.6
20260903104526 71 224 0.0 0.0 0.00 0.00 0.00 98 1015.4
20260903103023 71 224 0.0 0.0 0.00 0.00 0.00 99 1015.4
20260903101529 71 224 0.0 0.0 0.00 0.00 0.00 99 1015.2
20260903100025 71 224 0.0 0.0 0.00 0.00 0.00 99 1015.2
20260903094516 71 224 0.0 0.0 0.00 0.00 0.00 98 1015.1
20260903093016 71 224 0.0 0.0 0.00 0.00 0.00 98 1015.0
20260903091515 71 224 0.0 0.0 0.00 0.00 0.00 98 1015.0
20260903090014 71 224 0.0 0.0 0.00 0.00 0.00 98 1015.0
20260903084514 71 223 0.0 0.0 0.00 0.00 0.00 98 1015.0
20260903083011 72 223 0.0 0.0 0.00 0.00 0.00 98 1014.9
20260903081509 72 223 0.0 0.0 0.00 0.00 0.00 98 1014.9
20260903080008 72 223 0.0 0.0 0.00 0.00 0.00 98 1014.9
20260903074638 72 223 0.0 0.0 0.00 0.00 0.00 98 1014.9
20260903073044 72 223 0.0 0.0 0.00 0.00 0.00 98 1014.8
20260903071506 72 223 0.0 0.0 0.00 0.00 0.00 98 1014.8
20260903070006 73 223 0.0 0.0 0.00 0.00 0.00 98 1014.8
20260903064503 73 223 0.0 0.0 0.00 0.00 0.00 98 1014.9
20260903063125 73 223 0.0 0.0 0.00 0.00 0.00 98 1014.9
20260903061600 73 223 0.0 0.0 0.00 0.00 0.00 98 1015.0
20260903060059 73 223 0.0 0.0 0.00 0.00 0.00 98 1014.9
20260903054553 73 221 0.0 0.0 0.00 0.00 0.00 97 1014.8
20260903053056 74 221 0.0 0.0 0.00 0.00 0.00 97 1014.8
20260903051551 74 221 0.0 0.0 0.00 0.00 0.00 97 1014.8
20260903050050 74 221 0.0 0.0 0.00 0.00 0.00 97 1014.7
20260903044548 74 221 0.0 0.0 0.00 0.00 0.00 97 1014.6
20260903043101 74 221 0.0 0.0 0.00 0.00 0.00 97 1014.6
20260903041547 75 221 0.0 0.0 0.00 0.00 0.00 97 1014.6
20260903040047 75 221 0.0 0.0 0.00 0.00 0.00 97 1014.7
20260903034542 75 221 0.0 0.0 0.00 0.00 0.00 96 1014.7
20260903033041 75 221 0.0 0.0 0.00 0.00 0.00 96 1014.7
20260903031547 76 221 0.0 0.0 0.00 0.00 0.00 96 1014.8